Napa County, CA

7:46 AM PDT on April 23, 2017 (GMT -0700)
Napa County

Weather History for KAPC - June, 2014

Change the Weather History Date:

Saturday, June 21, 2014

  Actual Average Record
Temperature  
Mean Temperature 65 °F 65 °F  
Max Temperature 75 °F 79 °F 100 °F (2008)
Min Temperature 54 °F 51 °F 45 °F (2009)
Degree Days  
Heating Degree Days 0    
Month to date heating degree days 38  
Since 1 June heating degree days 38  
Since 1 July heating degree days 2930  
Cooling Degree Days 0    
Month to date cooling degree days 20  
Year to date cooling degree days 31  
Since 1 June cooling degree days 20  
Growing Degree Days 14 (Base 50)    
Moisture  
Dew Point 52 °F    
Average Humidity 66    
Maximum Humidity 86    
Minimum Humidity 46    
Precipitation  
Precipitation 0.00 in - 0.00 in (2017)
Month to date precipitation 0.00  
Year to date precipitation 8.27  
Since 1 July precipitation 10.47  
Sea Level Pressure  
Sea Level Pressure 29.86 in    
Wind  
Wind Speed 13 mph (SSW)    
Max Wind Speed 21 mph    
Max Gust Speed 24 mph    
Visibility 10 miles    
Events      
T = Trace of Precipitation, MM = Missing Value Source: NWS Daily Summary

Daily Weather History Graph

Daily Weather History Graph

Search for Another Location

Airport or City:

Trip Planner

Search our weather history database for the weather conditions in past years. The results will help you decide how hot, cold, wet, or windy it might be!

Date:

Astronomy

Jun. 21, 2014 Rise Set
Actual Time 5:46 AM PDT 8:35 PM PDT
Civil Twilight 5:14 AM PDT 9:07 PM PDT
Nautical Twilight 4:34 AM PDT 9:47 PM PDT
Astronomical Twilight 3:49 AM PDT 10:32 PM PDT
Moon 1:58 AM PDT (6/21) 3:23 PM PDT (6/21)
Length of Visible Light 15h 52m
Length of Day
14h 49m
Waning Crescent, 29% of the Moon is Illuminated
Jun 21
Waning Crescent
Jun 27
New
Jul 5
First Quarter
Jul 12
Full
Jul 18
Last Quarter

Hourly Weather History & Observations

Time (PDT) Temp. Dew Point Humidity Pressure Visibility Wind Dir Wind Speed Gust Speed Precip Events Conditions
12:54 AM 57.0 °F 48.0 °F 72% 29.88 in 10.0 mi WSW 9.2 mph - N/A   Clear
1:54 AM 55.9 °F 50.0 °F 80% 29.87 in 10.0 mi WSW 10.4 mph - N/A   Clear
2:54 AM 55.0 °F 48.9 °F 80% 29.87 in 10.0 mi West 5.8 mph - N/A   Clear
3:54 AM 55.9 °F 52.0 °F 87% 29.86 in 10.0 mi SW 12.7 mph - N/A   Clear
4:54 AM 55.0 °F 52.0 °F 89% 29.87 in 10.0 mi SSW 10.4 mph - N/A   Clear
5:54 AM 55.0 °F 52.0 °F 89% 29.87 in 10.0 mi SW 8.1 mph - N/A   Clear
6:54 AM 55.9 °F 52.0 °F 87% 29.88 in 10.0 mi SSW 12.7 mph - N/A   Clear
7:54 AM 59.0 °F 52.0 °F 78% 29.88 in 10.0 mi SW 10.4 mph - N/A   Clear
8:54 AM 61.0 °F 52.0 °F 72% 29.88 in 10.0 mi SW 10.4 mph - N/A   Clear
9:54 AM 63.0 °F 51.1 °F 65% 29.88 in 10.0 mi SW 9.2 mph - N/A   Clear
10:54 AM 66.0 °F 51.1 °F 59% 29.87 in 10.0 mi Variable 5.8 mph 16.1 mph N/A   Clear
11:54 AM 69.1 °F 52.0 °F 54% 29.87 in 10.0 mi SSW 11.5 mph - N/A   Clear
12:54 PM 73.0 °F 52.0 °F 48% 29.86 in 10.0 mi SSW 12.7 mph - N/A   Clear
1:54 PM 73.0 °F 53.1 °F 49% 29.86 in 10.0 mi SSW 17.3 mph - N/A   Clear
2:54 PM 73.9 °F 54.0 °F 50% 29.85 in 10.0 mi SSW 16.1 mph - N/A   Clear
3:54 PM 73.0 °F 52.0 °F 48% 29.83 in 10.0 mi SSW 17.3 mph 23.0 mph N/A   Clear
4:54 PM 71.1 °F 54.0 °F 55% 29.83 in 10.0 mi SSW 17.3 mph - N/A   Clear
5:54 PM 68.0 °F 53.1 °F 59% 29.82 in 10.0 mi South 18.4 mph - N/A   Clear
6:54 PM 66.0 °F 52.0 °F 60% 29.82 in 10.0 mi South 17.3 mph - N/A   Clear
7:54 PM 62.1 °F 53.1 °F 72% 29.82 in 10.0 mi SSW 17.3 mph - N/A   Clear
8:54 PM 60.1 °F 54.0 °F 80% 29.82 in 10.0 mi SSW 12.7 mph - N/A   Clear
9:54 PM 57.9 °F 53.1 °F 84% 29.84 in 10.0 mi SSW 10.4 mph - N/A   Clear
10:54 PM 57.0 °F 52.0 °F 83% 29.86 in 10.0 mi SSW 13.8 mph - N/A   Clear
11:54 PM 55.9 °F 52.0 °F 87% 29.86 in 10.0 mi SW 11.5 mph - N/A   Clear